Princeton, MN

3:29 AM CST on November 14, 2019 (GMT -0600)
Princeton Municipal

Weather History for KPNM - September, 2019

Change the Weather History Date:

Thursday, September 12, 2019

  Actual Average Record
Temperature  
Mean Temperature 58 °F -  
Max Temperature 66 °F 72 °F 86 °F (2017)
Min Temperature 51 °F 49 °F 28 °F (2007)
Degree Days  
Heating Degree Days 6    
Growing Degree Days 8 (Base 50)    
Moisture  
Dew Point 57 °F    
Average Humidity 95    
Maximum Humidity 100    
Minimum Humidity 82    
Precipitation  
Precipitation 0.00 in - - ()
Sea Level Pressure  
Sea Level Pressure 29.95 in    
Wind  
Wind Speed 10 mph (East)    
Max Wind Speed 18 mph    
Max Gust Speed 30 mph    
Visibility 8 miles    
Events Rain , Thunderstorm    
Averages and records for this station are not official NWS values.
T = Trace of Precipitation, MM = Missing Value Source: NWS Daily Summary

Daily Weather History Graph

Daily Weather History Graph

Search for Another Location

Airport or City:

Astronomy

Sep. 12, 2019 Rise Set
Actual Time 6:48 AM CDT 7:31 PM CDT
Civil Twilight 6:18 AM CDT 8:01 PM CDT
Nautical Twilight 5:43 AM CDT 8:37 PM CDT
Astronomical Twilight 5:06 AM CDT 9:14 PM CDT
Moon 7:22 PM CDT (9/12) 5:01 AM CDT (9/12)
Length of Visible Light 13h 42m
Length of Day
12h 42m
Waxing Gibbous, 98% of the Moon is Illuminated
Sep 12
Waxing Gibbous
Sep 13
Full
Sep 21
Last Quarter
Sep 28
New
Oct 5
First Quarter

Hourly Weather History & Observations

Time (CDT) Temp. Dew Point Humidity Pressure Visibility Wind Dir Wind Speed Gust Speed Precip Events Conditions
12:17 AM 51.8 °F 50.0 °F 94% 30.14 in 10.0 mi NE 8.1 mph - N/A   Overcast
12:35 AM 51.8 °F 50.0 °F 94% 30.13 in 10.0 mi NE 9.2 mph - N/A   Overcast
12:55 AM 51.8 °F 50.0 °F 94% 30.12 in 7.0 mi NE 10.4 mph 18.4 mph N/A   Overcast
12:56 AM 51.8 °F 50.0 °F 94% 30.12 in 7.0 mi NE 9.2 mph 18.4 mph N/A   Overcast
1:15 AM 51.8 °F 51.8 °F 100% 30.12 in 5.0 mi ENE 9.2 mph 16.1 mph N/A   Overcast
1:20 AM 51.8 °F 51.8 °F 100% 30.12 in 7.0 mi NE 9.2 mph 19.6 mph N/A   Overcast
1:38 AM 51.8 °F 51.8 °F 100% 30.11 in 7.0 mi NE 10.4 mph - N/A   Overcast
1:56 AM 51.8 °F 51.8 °F 100% 30.08 in 7.0 mi NE 13.8 mph 20.7 mph N/A   Overcast
2:15 AM 51.8 °F 51.8 °F 100% 30.08 in 5.0 mi NE 11.5 mph - N/A   Overcast
2:35 AM 53.6 °F 51.8 °F 94% 30.09 in 10.0 mi NE 8.1 mph 20.7 mph N/A   Overcast
2:36 AM 53.6 °F 51.8 °F 94% 30.09 in 10.0 mi NE 11.5 mph 20.7 mph N/A   Overcast
2:59 AM 53.6 °F 51.8 °F 94% 30.12 in 10.0 mi NE 10.4 mph 16.1 mph N/A   Overcast
3:17 AM 53.6 °F 51.8 °F 94% 30.15 in 10.0 mi ENE 6.9 mph - N/A Rain Light Rain
3:35 AM 53.6 °F 51.8 °F 94% 30.12 in 10.0 mi NE 8.1 mph - N/A Rain , Thunderstorm Light Thunderstorms and Rain
3:55 AM 53.6 °F 51.8 °F 94% 30.11 in 7.0 mi ENE 6.9 mph - N/A Rain , Thunderstorm Rain
3:56 AM 53.6 °F 51.8 °F 94% 30.11 in 7.0 mi NE 5.8 mph - N/A Rain , Thunderstorm Rain
4:15 AM 53.6 °F 51.8 °F 94% 30.09 in 7.0 mi NE 9.2 mph 16.1 mph N/A Rain , Thunderstorm Thunderstorms and Rain
4:20 AM 53.6 °F 51.8 °F 94% 30.09 in 7.0 mi NE 9.2 mph - N/A Rain , Thunderstorm Thunderstorms and Rain
4:38 AM 53.6 °F 51.8 °F 94% 30.06 in 5.0 mi NE 11.5 mph 17.3 mph N/A Rain Rain
4:56 AM 53.6 °F 51.8 °F 94% 30.04 in 10.0 mi NE 10.4 mph 18.4 mph N/A Rain Light Rain
5:15 AM 53.6 °F 51.8 °F 94% 30.07 in 10.0 mi ENE 6.9 mph - N/A Rain Rain
5:16 AM 53.6 °F 51.8 °F 94% 30.07 in 10.0 mi ENE 5.8 mph - N/A Rain Rain
5:35 AM 53.6 °F 51.8 °F 94% 30.08 in 10.0 mi ENE 9.2 mph - N/A Rain Light Rain
5:36 AM 53.6 °F 51.8 °F 94% 30.08 in 10.0 mi ENE 10.4 mph - N/A Rain Light Rain
5:59 AM 53.6 °F 51.8 °F 94% 30.07 in 7.0 mi NE 9.2 mph - N/A Rain Rain
6:18 AM 53.6 °F 51.8 °F 94% 30.04 in 7.0 mi NE 13.8 mph 18.4 mph N/A Rain Rain
6:36 AM 53.6 °F 53.6 °F 100% 30.04 in 7.0 mi ENE 11.5 mph 19.6 mph N/A Rain , Thunderstorm Rain
6:55 AM 53.6 °F 53.6 °F 100% 30.06 in 7.0 mi East 6.9 mph 19.6 mph N/A Rain Rain
7:15 AM 53.6 °F 53.6 °F 100% 30.07 in 7.0 mi ENE 9.2 mph - N/A Rain Heavy Rain
7:16 AM 53.6 °F 53.6 °F 100% 30.07 in 7.0 mi ENE 8.1 mph - N/A Rain Heavy Rain
7:39 AM 53.6 °F 53.6 °F 100% 30.01 in 5.0 mi ENE 13.8 mph 21.9 mph N/A Rain Heavy Rain
7:57 AM 53.6 °F 53.6 °F 100% 29.96 in 4.0 mi ENE 18.4 mph 25.3 mph N/A Rain Heavy Rain
8:15 AM 55.4 °F 53.6 °F 94% 29.98 in 10.0 mi East 13.8 mph 25.3 mph N/A Rain Light Rain
8:16 AM 55.4 °F 53.6 °F 94% 29.98 in 10.0 mi East 13.8 mph 25.3 mph N/A Rain Light Rain
8:35 AM 55.4 °F 53.6 °F 94% 29.96 in 10.0 mi East 18.4 mph 29.9 mph N/A   Overcast
8:36 AM 55.4 °F 53.6 °F 94% 29.96 in 10.0 mi East 17.3 mph 29.9 mph N/A   Overcast
8:55 AM 55.4 °F 53.6 °F 94% 29.96 in 10.0 mi East 15.0 mph 26.5 mph N/A   Overcast
9:18 AM 55.4 °F 53.6 °F 94% 29.94 in 10.0 mi ENE 15.0 mph 28.8 mph N/A   Overcast
9:36 AM 55.4 °F 55.4 °F 100% 29.96 in 10.0 mi ENE 15.0 mph 21.9 mph N/A   Overcast
9:55 AM 57.2 °F 55.4 °F 94% 29.95 in 10.0 mi East 12.7 mph 21.9 mph N/A   Overcast
10:15 AM 57.2 °F 55.4 °F 94% 29.93 in 10.0 mi East 11.5 mph 24.2 mph N/A   Overcast
10:16 AM 57.2 °F 55.4 °F 94% 29.93 in 10.0 mi East 15.0 mph 24.2 mph N/A   Overcast
10:39 AM 57.2 °F 55.4 °F 94% 29.94 in 10.0 mi East 13.8 mph 19.6 mph N/A   Overcast
10:57 AM 59.0 °F 57.2 °F 94% 29.95 in 10.0 mi East 10.4 mph 17.3 mph N/A   Overcast
11:15 AM 60.8 °F 57.2 °F 88% 29.96 in 10.0 mi East 10.4 mph 20.7 mph N/A   Overcast
11:16 AM 60.8 °F 57.2 °F 88% 29.96 in 10.0 mi East 10.4 mph 20.7 mph N/A   Overcast
11:35 AM 60.8 °F 57.2 °F 88% 29.96 in 10.0 mi East 10.4 mph - N/A   Overcast
11:55 AM 60.8 °F 57.2 °F 88% 29.96 in 10.0 mi East 9.2 mph - N/A   Overcast
12:18 PM 60.8 °F 57.2 °F 88% 29.96 in 10.0 mi East 10.4 mph 16.1 mph N/A   Overcast
12:36 PM 62.6 °F 57.2 °F 82% 29.95 in 10.0 mi East 9.2 mph 17.3 mph N/A   Overcast
12:55 PM 62.6 °F 57.2 °F 82% 29.95 in 10.0 mi East 10.4 mph - N/A   Overcast
12:56 PM 62.6 °F 57.2 °F 82% 29.95 in 10.0 mi East 9.2 mph - N/A   Overcast
1:15 PM 62.6 °F 57.2 °F 82% 29.94 in 10.0 mi East 9.2 mph 16.1 mph N/A   Overcast
1:39 PM 60.8 °F 59.0 °F 94% 29.93 in 3.0 mi East 9.2 mph 16.1 mph N/A Rain Rain
1:57 PM 60.8 °F 59.0 °F 94% 29.92 in 3.0 mi East 8.1 mph 16.1 mph N/A Rain Rain
2:15 PM 60.8 °F 59.0 °F 94% 29.91 in 3.0 mi East 6.9 mph - N/A Rain Rain
2:35 PM 60.8 °F 60.8 °F 100% 29.90 in 5.0 mi East 8.1 mph - N/A Rain Rain
2:55 PM 60.8 °F 60.8 °F 100% 29.88 in 4.0 mi East 10.4 mph - N/A   Light Drizzle
2:59 PM 60.8 °F 60.8 °F 100% 29.88 in 3.0 mi East 10.4 mph 16.1 mph N/A   Drizzle
3:18 PM 60.8 °F 60.8 °F 100% 29.86 in 4.0 mi East 12.7 mph 17.3 mph N/A   Overcast
3:36 PM 60.8 °F 60.8 °F 100% 29.85 in 2.5 mi East 9.2 mph - N/A Thunderstorm Overcast
3:55 PM 60.8 °F 60.8 °F 100% 29.85 in 2.5 mi East 9.2 mph 19.6 mph N/A Rain Light Rain
4:15 PM 60.8 °F 60.8 °F 100% 29.83 in 3.0 mi East 9.2 mph 16.1 mph N/A Rain , Thunderstorm Thunderstorms and Rain
4:16 PM 60.8 °F 60.8 °F 100% 29.83 in 3.0 mi East 9.2 mph 16.1 mph N/A Rain , Thunderstorm Thunderstorms and Rain
4:39 PM 62.6 °F 60.8 °F 94% 29.83 in 2.5 mi East 9.2 mph 17.3 mph N/A   Light Drizzle
4:57 PM 62.6 °F 60.8 °F 94% 29.82 in 2.0 mi East 9.2 mph - N/A Rain , Thunderstorm Heavy Thunderstorms and Rain
5:15 PM 62.6 °F 60.8 °F 94% 29.82 in 7.0 mi East 9.2 mph 18.4 mph N/A Rain , Thunderstorm Rain
5:35 PM 62.6 °F 60.8 °F 94% 29.81 in 4.0 mi East 8.1 mph - N/A   Light Drizzle
5:55 PM 62.6 °F 62.6 °F 100% 29.82 in 1.8 mi ESE 10.4 mph 19.6 mph N/A Rain Light Rain
5:59 PM 62.6 °F 62.6 °F 100% 29.82 in 2.0 mi ESE 10.4 mph 18.4 mph N/A Rain Light Rain
6:18 PM 62.6 °F 62.6 °F 100% 29.83 in 3.0 mi ESE 9.2 mph 19.6 mph N/A Rain Rain
6:35 PM 64.4 °F 62.6 °F 94% 29.83 in 4.0 mi ESE 10.4 mph - N/A Rain Light Rain
6:55 PM 64.4 °F 62.6 °F 94% 29.80 in 10.0 mi East 6.9 mph - N/A   Overcast
7:15 PM 64.4 °F 62.6 °F 94% 29.81 in 10.0 mi ESE 9.2 mph - N/A   Overcast
7:39 PM 64.4 °F 62.6 °F 94% 29.80 in 10.0 mi SE 9.2 mph - N/A   Overcast
7:57 PM 64.4 °F 62.6 °F 94% 29.81 in 10.0 mi SE 6.9 mph - N/A   Overcast
8:15 PM 64.4 °F 62.6 °F 94% 29.81 in 10.0 mi SSE 5.8 mph - N/A   Overcast
8:16 PM 64.4 °F 62.6 °F 94% 29.81 in 10.0 mi SSE 6.9 mph - N/A   Overcast
8:35 PM 64.4 °F 64.4 °F 100% 29.81 in 10.0 mi South 6.9 mph - N/A   Overcast
8:36 PM 64.4 °F 64.4 °F 100% 29.81 in 10.0 mi SSE 8.1 mph - N/A   Overcast
8:55 PM 64.4 °F 64.4 °F 100% 29.82 in 10.0 mi South 3.5 mph - N/A   Overcast
9:18 PM 64.4 °F 64.4 °F 100% 29.82 in 7.0 mi SSE 4.6 mph - N/A   Overcast
9:36 PM 64.4 °F 64.4 °F 100% 29.82 in 7.0 mi SE 4.6 mph - N/A   Overcast
9:55 PM 64.4 °F 64.4 °F 100% 29.82 in 7.0 mi SSE 5.8 mph - N/A   Overcast
9:56 PM 64.4 °F 64.4 °F 100% 29.82 in 7.0 mi SSE 5.8 mph - N/A   Overcast
10:15 PM 66.2 °F 64.4 °F 94% 29.82 in 7.0 mi South 8.1 mph - N/A   Overcast
10:39 PM 64.4 °F 64.4 °F 100% 29.82 in 10.0 mi South 4.6 mph - N/A   Mostly Cloudy
10:57 PM 64.4 °F 62.6 °F 94% 29.81 in 10.0 mi SSE 4.6 mph - N/A   Scattered Clouds
11:15 PM 62.6 °F 62.6 °F 100% 29.81 in 5.0 mi SSE 3.5 mph - N/A   Scattered Clouds
11:16 PM 62.6 °F 62.6 °F 100% 29.81 in 5.0 mi South 3.5 mph - N/A   Scattered Clouds
11:35 PM 64.4 °F 62.6 °F 94% 29.80 in 7.0 mi Calm Calm - N/A   Mostly Cloudy
11:36 PM 64.4 °F 62.6 °F 94% 29.80 in 7.0 mi Calm Calm - N/A   Mostly Cloudy
11:55 PM 62.6 °F 62.6 °F 100% 29.80 in 5.0 mi SSE 5.8 mph - N/A   Mostly Cloudy